When you browse on this site, cookies collect data to enhance your experience and personalize the content and advertising you see.
Visit our Privacy Policy to learn more. By continuing to use the site, you agree to this use of cookies and data.
  • In Romania
  • List of Countries
  • For 7 days
  • Water Temperature
  • Weather Map
  • Weather Widgets
  • user-avatar
    Login

    Hourly Weather Saurimo

    Today, 27 May, Wednesday

    Time Temperature Precipitation Wind Pressure Humidity
    00:00 +20°C° 0 mm 0 mps 671 mmHg 62%
    01:00 +19°C° 0 mm 0 mps 671 mmHg 64%
    02:00 +19°C° 0 mm 0 mps 670 mmHg 66%
    03:00 +19°C° 0 mm 0 mps 670 mmHg 67%
    04:00 +20°C° 0 mm 1 mps 670 mmHg 68%
    05:00 +21°C° 0 mm 1 mps 671 mmHg 67%
    06:00 +21°C° 0 mm 1 mps 671 mmHg 66%
    07:00 +22°C° 0 mm 1 mps 672 mmHg 64%
    08:00 +26°C° 0 mm 1 mps 673 mmHg 55%
    09:00 +29°C° 0 mm 1 mps 673 mmHg 46%
    10:00 +32°C° 0 mm 1 mps 674 mmHg 37%
    11:00 +33°C° 0 mm 1 mps 673 mmHg 34%
    12:00 +34°C° 0 mm 1 mps 673 mmHg 31%
    13:00 +35°C° 0 mm 1 mps 672 mmHg 29%
    14:00 +34°C° 0 mm 1 mps 671 mmHg 31%
    15:00 +32°C° 0 mm 2 mps 671 mmHg 34%
    16:00 +31°C° 0 mm 2 mps 670 mmHg 37%
    17:00 +30°C° 0 mm 2 mps 670 mmHg 40%
    18:00 +28°C° 0 mm 2 mps 671 mmHg 42%
    19:00 +27°C° 0 mm 2 mps 671 mmHg 45%
    20:00 +26°C° 0 mm 1 mps 671 mmHg 45%
    21:00 +26°C° 0 mm 1 mps 671 mmHg 45%
    22:00 +26°C° 0 mm 1 mps 672 mmHg 45%
    23:00 +25°C° 0 mm 1 mps 671 mmHg 46%

    Tomorrow, 28 May, Thursday

    Time Temperature Precipitation Wind Pressure Humidity
    00:00 +24°C° 0 mm 1 mps 671 mmHg 48%
    01:00 +23°C° 0 mm 1 mps 671 mmHg 50%
    02:00 +23°C° 0 mm 1 mps 670 mmHg 53%
    03:00 +22°C° 0 mm 1 mps 670 mmHg 55%
    04:00 +21°C° 0 mm 1 mps 670 mmHg 58%
    05:00 +20°C° 0 mm 2 mps 671 mmHg 57%
    06:00 +21°C° 0 mm 2 mps 671 mmHg 55%
    07:00 +21°C° 0 mm 2 mps 672 mmHg 54%
    08:00 +25°C° 0 mm 3 mps 672 mmHg 47%
    09:00 +28°C° 0 mm 3 mps 673 mmHg 39%
    10:00 +30°C° 0 mm 3 mps 674 mmHg 31%
    11:00 +31°C° 0 mm 3 mps 673 mmHg 29%
    12:00 +34°C° 0 mm 3 mps 673 mmHg 27%
    13:00 +35°C° 0 mm 2 mps 672 mmHg 25%
    14:00 +34°C° 0 mm 2 mps 672 mmHg 26%
    15:00 +32°C° 0 mm 2 mps 671 mmHg 28%
    16:00 +32°C° 0 mm 2 mps 671 mmHg 29%
    17:00 +29°C° 0 mm 2 mps 671 mmHg 34%
    18:00 +27°C° 0 mm 2 mps 671 mmHg 38%
    19:00 +25°C° 0 mm 2 mps 671 mmHg 43%
    20:00 +24°C° 0 mm 2 mps 671 mmHg 44%
    21:00 +23°C° 0 mm 2 mps 671 mmHg 45%
    22:00 +21°C° 0 mm 2 mps 671 mmHg 47%
    23:00 +20°C° 0 mm 2 mps 671 mmHg 47%

    Day after tomorrow, 29 May, Friday

    Time Temperature Precipitation Wind Pressure Humidity
    00:00 +20°C° 0 mm 2 mps 670 mmHg 46%
    01:00 +19°C° 0 mm 2 mps 670 mmHg 46%
    02:00 +19°C° 0 mm 2 mps 670 mmHg 47%
    03:00 +18°C° 0 mm 2 mps 670 mmHg 47%
    04:00 +18°C° 0 mm 2 mps 670 mmHg 47%
    05:00 +18°C° 0 mm 2 mps 671 mmHg 47%
    06:00 +19°C° 0 mm 2 mps 671 mmHg 46%
    07:00 +19°C° 0 mm 2 mps 672 mmHg 46%
    08:00 +22°C° 0 mm 3 mps 672 mmHg 39%
    09:00 +27°C° 0 mm 4 mps 673 mmHg 33%
    10:00 +30°C° 0 mm 4 mps 673 mmHg 27%
    11:00 +32°C° 0 mm 4 mps 673 mmHg 25%
    12:00 +33°C° 0 mm 3 mps 672 mmHg 24%
    13:00 +34°C° 0 mm 3 mps 672 mmHg 23%
    14:00 +33°C° 0 mm 3 mps 671 mmHg 24%
    15:00 +33°C° 0 mm 3 mps 671 mmHg 25%
    16:00 +31°C° 0 mm 2 mps 670 mmHg 26%
    17:00 +29°C° 0 mm 2 mps 670 mmHg 31%
    18:00 +26°C° 0 mm 2 mps 670 mmHg 36%
    19:00 +23°C° 0 mm 2 mps 670 mmHg 41%
    20:00 +23°C° 0 mm 2 mps 670 mmHg 42%
    21:00 +21°C° 0 mm 2 mps 670 mmHg 44%
    22:00 +20°C° 0 mm 2 mps 670 mmHg 45%
    23:00 +20°C° 0 mm 2 mps 670 mmHg 45%

    30 May, Saturday

    Time Temperature Precipitation Wind Pressure Humidity
    00:00 +19°C° 0 mm 2 mps 670 mmHg 45%
    01:00 +19°C° 0 mm 2 mps 670 mmHg 46%
    02:00 +18°C° 0 mm 2 mps 670 mmHg 47%
    03:00 +18°C° 0 mm 2 mps 670 mmHg 48%
    04:00 +17°C° 0 mm 2 mps 670 mmHg 49%
    05:00 +18°C° 0 mm 2 mps 670 mmHg 48%
    06:00 +18°C° 0 mm 2 mps 671 mmHg 47%
    07:00 +19°C° 0 mm 3 mps 671 mmHg 46%
    08:00 +22°C° 0 mm 3 mps 672 mmHg 41%
    09:00 +26°C° 0 mm 3 mps 673 mmHg 36%
    10:00 +30°C° 0 mm 4 mps 673 mmHg 31%
    11:00 +31°C° 0 mm 3 mps 673 mmHg 29%
    12:00 +33°C° 0 mm 3 mps 672 mmHg 26%
    13:00 +34°C° 0 mm 2 mps 672 mmHg 23%
    14:00 +34°C° 0 mm 2 mps 672 mmHg 25%
    15:00 +32°C° 0 mm 2 mps 671 mmHg 26%
    16:00 +32°C° 0 mm 2 mps 671 mmHg 27%
    17:00 +29°C° 0 mm 2 mps 671 mmHg 32%
    18:00 +27°C° 0 mm 1 mps 671 mmHg 37%
    19:00 +24°C° 0 mm 1 mps 671 mmHg 42%
    20:00 +24°C° 0 mm 1 mps 671 mmHg 45%
    21:00 +23°C° 0 mm 1 mps 671 mmHg 48%
    22:00 +22°C° 0 mm 1 mps 671 mmHg 51%
    23:00 +21°C° 0 mm 1 mps 671 mmHg 53%

    31 May, Sunday

    Time Temperature Precipitation Wind Pressure Humidity
    00:00 +20°C° 0 mm 2 mps 671 mmHg 55%
    01:00 +19°C° 0 mm 2 mps 670 mmHg 57%
    02:00 +19°C° 0 mm 2 mps 670 mmHg 56%
    03:00 +20°C° 0 mm 2 mps 670 mmHg 54%
    04:00 +20°C° 0 mm 2 mps 670 mmHg 53%
    05:00 +20°C° 0 mm 2 mps 671 mmHg 54%
    06:00 +20°C° 0 mm 2 mps 671 mmHg 54%
    07:00 +20°C° 0 mm 3 mps 672 mmHg 54%
    08:00 +24°C° 0 mm 3 mps 672 mmHg 48%
    09:00 +27°C° 0 mm 3 mps 673 mmHg 41%
    10:00 +30°C° 0 mm 4 mps 673 mmHg 34%
    11:00 +31°C° 0 mm 3 mps 673 mmHg 32%
    12:00 +33°C° 0 mm 3 mps 673 mmHg 30%
    13:00 +34°C° 0 mm 3 mps 672 mmHg 28%
    14:00 +33°C° 0 mm 3 mps 672 mmHg 29%
    15:00 +33°C° 0 mm 3 mps 671 mmHg 30%
    16:00 +32°C° 0 mm 2 mps 671 mmHg 31%
    17:00 +29°C° 0 mm 2 mps 671 mmHg 36%
    18:00 +27°C° 0 mm 1 mps 671 mmHg 40%
    19:00 +25°C° 0 mm 1 mps 671 mmHg 45%
    20:00 +24°C° 0 mm 1 mps 671 mmHg 47%
    21:00 +24°C° 0 mm 1 mps 672 mmHg 49%
    22:00 +23°C° 0 mm 1 mps 672 mmHg 51%
    23:00 +22°C° 0 mm 1 mps 672 mmHg 51%

    1 June, Monday

    Time Temperature Precipitation Wind Pressure Humidity
    00:00 +22°C° 0 mm 1 mps 672 mmHg 51%
    01:00 +21°C° 0 mm 2 mps 671 mmHg 52%
    02:00 +20°C° 0 mm 2 mps 671 mmHg 53%
    03:00 +19°C° 0 mm 2 mps 671 mmHg 54%
    04:00 +18°C° 0 mm 2 mps 671 mmHg 56%
    05:00 +18°C° 0 mm 2 mps 671 mmHg 56%
    06:00 +19°C° 0 mm 2 mps 671 mmHg 56%
    07:00 +20°C° 0 mm 3 mps 672 mmHg 56%
    08:00 +22°C° 0 mm 3 mps 672 mmHg 50%
    09:00 +26°C° 0 mm 3 mps 673 mmHg 44%
    10:00 +28°C° 0 mm 4 mps 673 mmHg 39%
    11:00 +30°C° 0 mm 4 mps 673 mmHg 36%
    12:00 +31°C° 0 mm 3 mps 673 mmHg 33%
    13:00 +33°C° 0 mm 3 mps 672 mmHg 30%
    14:00 +31°C° 0 mm 3 mps 672 mmHg 31%
    15:00 +31°C° 0 mm 3 mps 671 mmHg 32%
    16:00 +30°C° 0 mm 3 mps 671 mmHg 33%
    17:00 +28°C° 0 mm 3 mps 671 mmHg 37%
    18:00 +26°C° 0 mm 2 mps 671 mmHg 41%
    19:00 +23°C° 0 mm 1 mps 671 mmHg 45%
    20:00 +23°C° 0 mm 1 mps 671 mmHg 47%
    21:00 +23°C° 0 mm 1 mps 671 mmHg 48%
    22:00 +22°C° 0 mm 1 mps 671 mmHg 49%
    23:00 +22°C° 0 mm 1 mps 671 mmHg 51%
    Show more